• In France
  • List of Countries
  • For 7 days
  • Water Temperature
  • Satellite Maps
  • Weather Map
  • Weather Widgets
  • user-avatar
    Login

    Hourly Weather Viedma

    Today, 15 November, Thursday

    Time Temperature Precipitation Wind Pressure Humidity
    00:00 +21°C° 0 mm 9 mps 747 mmHg 37%
    01:00 +19°C° 0 mm 9 mps 748 mmHg 39%
    02:00 +18°C° 0 mm 8 mps 747 mmHg 43%
    03:00 +17°C° 0 mm 10 mps 748 mmHg 42%
    04:00 +14°C° 0 mm 11 mps 749 mmHg 41%
    05:00 +13°C° 0 mm 13 mps 750 mmHg 40%
    06:00 +13°C° 0 mm 13 mps 751 mmHg 39%
    07:00 +13°C° 0 mm 13 mps 752 mmHg 38%
    08:00 +12°C° 0 mm 12 mps 754 mmHg 36%
    09:00 +13°C° 0 mm 12 mps 754 mmHg 34%
    10:00 +13°C° 0 mm 12 mps 755 mmHg 33%
    11:00 +13°C° 0 mm 12 mps 756 mmHg 31%
    12:00 +14°C° 0 mm 11 mps 756 mmHg 30%
    13:00 +14°C° 0 mm 10 mps 757 mmHg 29%
    14:00 +15°C° 0 mm 9 mps 757 mmHg 28%
    15:00 +15°C° 0 mm 8 mps 757 mmHg 28%
    16:00 +15°C° 0 mm 7 mps 757 mmHg 28%
    17:00 +15°C° 0 mm 6 mps 758 mmHg 27%
    18:00 +14°C° 0 mm 5 mps 758 mmHg 31%
    19:00 +13°C° 0 mm 4 mps 759 mmHg 34%
    20:00 +12°C° 0 mm 3 mps 759 mmHg 37%
    21:00 +11°C° 0 mm 3 mps 759 mmHg 40%
    22:00 +11°C° 0 mm 4 mps 760 mmHg 42%
    23:00 +10°C° 0 mm 4 mps 760 mmHg 45%

    Tomorrow, 16 November, Friday

    Time Temperature Precipitation Wind Pressure Humidity
    00:00 +9°C° 0 mm 5 mps 760 mmHg 47%
    01:00 +9°C° 0 mm 5 mps 759 mmHg 50%
    02:00 +9°C° 0 mm 5 mps 759 mmHg 52%
    03:00 +9°C° 0 mm 6 mps 759 mmHg 54%
    04:00 +8°C° 0 mm 6 mps 759 mmHg 55%
    05:00 +8°C° 0 mm 6 mps 759 mmHg 56%
    06:00 +11°C° 0 mm 7 mps 759 mmHg 48%
    07:00 +13°C° 0 mm 8 mps 759 mmHg 39%
    08:00 +16°C° 0 mm 8 mps 759 mmHg 31%
    09:00 +18°C° 0 mm 9 mps 758 mmHg 29%
    10:00 +21°C° 0 mm 9 mps 758 mmHg 26%
    11:00 +22°C° 0 mm 10 mps 758 mmHg 24%
    12:00 +23°C° 0 mm 10 mps 757 mmHg 23%
    13:00 +23°C° 0 mm 10 mps 756 mmHg 23%
    14:00 +23°C° 0 mm 10 mps 756 mmHg 22%
    15:00 +23°C° 0 mm 10 mps 755 mmHg 24%
    16:00 +22°C° 0 mm 9 mps 754 mmHg 25%
    17:00 +22°C° 0 mm 9 mps 753 mmHg 26%
    18:00 +21°C° 0 mm 9 mps 753 mmHg 32%
    19:00 +19°C° 0 mm 9 mps 753 mmHg 38%
    20:00 +18°C° 0 mm 9 mps 753 mmHg 44%
    21:00 +17°C° 0.3 mm 9 mps 753 mmHg 53%
    22:00 +15°C° 0.3 mm 9 mps 753 mmHg 61%
    23:00 +13°C° 0.3 mm 8 mps 753 mmHg 70%

    Day after tomorrow, 17 November, Saturday

    Time Temperature Precipitation Wind Pressure Humidity
    00:00 +13°C° 0.1 mm 8 mps 752 mmHg 74%
    01:00 +14°C° 0.1 mm 7 mps 751 mmHg 78%
    02:00 +13°C° 0.1 mm 6 mps 750 mmHg 82%
    03:00 +14°C° 0.1 mm 6 mps 750 mmHg 83%
    04:00 +14°C° 0.1 mm 6 mps 750 mmHg 83%
    05:00 +14°C° 0.1 mm 6 mps 750 mmHg 83%
    06:00 +15°C° 0 mm 7 mps 750 mmHg 71%
    07:00 +17°C° 0 mm 9 mps 750 mmHg 58%
    08:00 +18°C° 0 mm 10 mps 750 mmHg 46%
    09:00 +19°C° 0 mm 11 mps 751 mmHg 45%
    10:00 +19°C° 0 mm 12 mps 752 mmHg 44%
    11:00 +19°C° 0 mm 13 mps 752 mmHg 43%
    12:00 +19°C° 0 mm 12 mps 753 mmHg 42%
    13:00 +18°C° 0 mm 11 mps 753 mmHg 40%
    14:00 +18°C° 0 mm 10 mps 754 mmHg 39%
    15:00 +18°C° 0 mm 9 mps 754 mmHg 37%
    16:00 +18°C° 0 mm 7 mps 754 mmHg 35%
    17:00 +19°C° 0 mm 6 mps 755 mmHg 33%
    18:00 +17°C° 0 mm 5 mps 755 mmHg 38%
    19:00 +16°C° 0 mm 5 mps 755 mmHg 43%
    20:00 +14°C° 0 mm 4 mps 756 mmHg 48%
    21:00 +14°C° 0 mm 4 mps 756 mmHg 51%
    22:00 +13°C° 0 mm 3 mps 756 mmHg 55%
    23:00 +13°C° 0 mm 3 mps 757 mmHg 58%

    18 November, Sunday

    Time Temperature Precipitation Wind Pressure Humidity
    00:00 +13°C° 0 mm 3 mps 757 mmHg 56%
    01:00 +13°C° 0 mm 3 mps 756 mmHg 53%
    02:00 +12°C° 0 mm 3 mps 756 mmHg 51%
    03:00 +12°C° 0 mm 4 mps 756 mmHg 50%
    04:00 +12°C° 0 mm 4 mps 756 mmHg 50%
    05:00 +12°C° 0 mm 4 mps 756 mmHg 49%
    06:00 +14°C° 0 mm 5 mps 757 mmHg 45%
    07:00 +17°C° 0 mm 5 mps 757 mmHg 40%
    08:00 +20°C° 0 mm 5 mps 757 mmHg 36%
    09:00 +20°C° 0 mm 5 mps 757 mmHg 35%
    10:00 +21°C° 0 mm 4 mps 757 mmHg 33%
    11:00 +21°C° 0 mm 4 mps 757 mmHg 32%
    12:00 +21°C° 0 mm 4 mps 756 mmHg 31%
    13:00 +21°C° 0 mm 3 mps 756 mmHg 31%
    14:00 +21°C° 0 mm 3 mps 756 mmHg 30%
    15:00 +21°C° 0 mm 3 mps 756 mmHg 30%
    16:00 +21°C° 0 mm 3 mps 756 mmHg 30%
    17:00 +21°C° 0 mm 3 mps 756 mmHg 29%
    18:00 +20°C° 0 mm 3 mps 756 mmHg 34%
    19:00 +18°C° 0 mm 3 mps 756 mmHg 38%
    20:00 +17°C° 0 mm 3 mps 756 mmHg 42%
    21:00 +16°C° 0 mm 3 mps 756 mmHg 43%
    22:00 +15°C° 0 mm 4 mps 756 mmHg 45%
    23:00 +14°C° 0 mm 4 mps 756 mmHg 46%

    19 November, Monday

    Time Temperature Precipitation Wind Pressure Humidity
    00:00 +14°C° 0 mm 4 mps 756 mmHg 46%
    01:00 +14°C° 0 mm 4 mps 755 mmHg 46%
    02:00 +14°C° 0 mm 4 mps 754 mmHg 46%
    03:00 +14°C° 0 mm 5 mps 754 mmHg 48%
    04:00 +13°C° 0 mm 5 mps 754 mmHg 50%
    05:00 +13°C° 0 mm 5 mps 753 mmHg 53%
    06:00 +16°C° 0 mm 6 mps 753 mmHg 47%
    07:00 +19°C° 0 mm 6 mps 753 mmHg 41%
    08:00 +22°C° 0 mm 7 mps 753 mmHg 35%
    09:00 +24°C° 0 mm 7 mps 753 mmHg 31%
    10:00 +27°C° 0 mm 8 mps 752 mmHg 28%
    11:00 +29°C° 0 mm 8 mps 751 mmHg 24%
    12:00 +29°C° 0 mm 8 mps 751 mmHg 23%
    13:00 +29°C° 0 mm 9 mps 750 mmHg 23%
    14:00 +31°C° 0 mm 9 mps 750 mmHg 22%
    15:00 +29°C° 0 mm 8 mps 749 mmHg 22%
    16:00 +29°C° 0 mm 7 mps 749 mmHg 23%
    17:00 +29°C° 0 mm 6 mps 749 mmHg 23%
    18:00 +26°C° 0 mm 4 mps 749 mmHg 28%
    19:00 +24°C° 0 mm 3 mps 750 mmHg 32%
    20:00 +21°C° 0 mm 2 mps 750 mmHg 37%
    21:00 +21°C° 0 mm 2 mps 750 mmHg 37%
    22:00 +21°C° 0 mm 3 mps 751 mmHg 37%
    23:00 +20°C° 0 mm 4 mps 751 mmHg 38%

    20 November, Tuesday

    Time Temperature Precipitation Wind Pressure Humidity
    00:00 +20°C° 0 mm 3 mps 751 mmHg 39%
    01:00 +20°C° 0 mm 3 mps 751 mmHg 40%
    02:00 +19°C° 0 mm 3 mps 751 mmHg 41%
    03:00 +19°C° 0 mm 3 mps 752 mmHg 43%
    04:00 +18°C° 0 mm 3 mps 752 mmHg 45%
    05:00 +18°C° 0 mm 3 mps 753 mmHg 47%
    06:00 +19°C° 0 mm 4 mps 754 mmHg 45%
    07:00 +21°C° 0 mm 5 mps 754 mmHg 42%
    08:00 +22°C° 0 mm 6 mps 755 mmHg 39%
    09:00 +23°C° 0 mm 5 mps 755 mmHg 37%
    10:00 +23°C° 0 mm 4 mps 755 mmHg 34%
    11:00 +25°C° 0 mm 3 mps 755 mmHg 32%
    12:00 +26°C° 0 mm 4 mps 755 mmHg 31%
    13:00 +27°C° 0 mm 5 mps 755 mmHg 29%
    14:00 +27°C° 0 mm 5 mps 754 mmHg 28%
    15:00 +27°C° 0 mm 6 mps 753 mmHg 29%
    16:00 +27°C° 0 mm 6 mps 753 mmHg 30%
    17:00 +26°C° 0 mm 7 mps 752 mmHg 31%
    18:00 +23°C° 0 mm 7 mps 752 mmHg 37%
    19:00 +21°C° 0 mm 8 mps 752 mmHg 42%
    20:00 +20°C° 0 mm 8 mps 752 mmHg 48%
    21:00 +20°C° 0 mm 8 mps 752 mmHg 48%
    22:00 +20°C° 0 mm 8 mps 752 mmHg 48%
    23:00 +20°C° 0 mm 8 mps 751 mmHg 48%
    Show more